Content
SEND FEEDBACK

Daily
Averages
Monthly
Summary
China

SHANGHAI, CHINA


Home > Asia > China
Elevation: 23 feet     Latitude: 31 10N     Longitude: 121 26E

WEATHER
 
SELECT A DAY
Number of Records: 210,230;   Date Range: 7/1/96 - 11/27/14
 
SHARE

PRINT THIS DATA

[ ← Previous Day ]
WEATHER ALMANAC - FEBRUARY 13, 2013
[ Next Day → ]
[ °C ]   °F
Weather ElementAverageHighLow
Temperature42.7 °F48.2 °F (2:30 pm)37.4 °F (2:00 am)
Dewpoint30.6 °F37.4 °F (11:30 pm)28.4 °F (10:30 am)
Humidity63.2 %81 % (8:00 am)46 % (2:30 pm)
Barometer30.33 in30.39 in (12:30 am)30.24 in (5:30 pm)
Wind Speed7.2 mph11.2 mph (3:00 pm)
Weather ElementAverage
Visibility4.7 mi
Wind DirectionSSE (167.2 °)

Weather ElementTotal
Precipitation---
Heating Degree Days22.2 (Base 65)
Averaged from 47 records on February 13, 2013
WEATHER CONDITIONS BREAKOUT
WIND DIRECTION BREAKOUT
WEATHER BY HOUR - FEBRUARY 13, 2013
[ °C ]   °F
Local TimeTemperatureDewpointHumidityBarometerVisibilityWind DirectionWind SpeedGust SpeedPrecipitationEventsConditions
12:30 AM41.0 °F32.0 °F70 %30.39 in3.7 miNW (320°)6.7 mphMostly Cloudy
1:00 AM39.2 °F32.0 °F75 %30.39 in4.3 miNNW (330°)6.7 mphMostly Cloudy
1:30 AM39.2 °F30.2 °F70 %30.39 in4.3 miNNW (340°)6.7 mphMostly Cloudy
2:00 AM37.4 °F30.2 °F75 %30.39 in6.2 miNorth (350°)6.7 mphMostly Cloudy
2:30 AM37.4 °F30.2 °F75 %30.39 in6.2 miNNW (340°)4.5 mphMostly Cloudy
3:00 AM39.2 °F30.2 °F70 %30.39 in6.2 miNW (320°)6.7 mphMostly Cloudy
3:30 AM39.2 °F30.2 °F70 %30.39 in6.2 miVariable2.2 mphMostly Cloudy
4:00 AM39.2 °F30.2 °F70 %30.39 in6.2 miVariable2.2 mphMostly Cloudy
4:30 AM39.2 °F30.2 °F70 %30.39 in6.2 miNNW (340°)4.5 mphMostly Cloudy
5:00 AM39.2 °F30.2 °F70 %30.36 in6.2 miVariable2.2 mphMostly Cloudy
5:30 AM39.2 °F30.2 °F70 %30.36 in6.2 miNorth (350°)4.5 mphMostly Cloudy
6:00 AM39.2 °F30.2 °F70 %30.39 in6.2 miNorth (360°)4.5 mphMostly Cloudy
6:30 AM39.2 °F32.0 °F75 %30.39 in4.3 miNNW (330°)4.5 mphMostly Cloudy
7:00 AM39.2 °F32.0 °F75 %30.39 in3.7 miNW (320°)4.5 mphMostly Cloudy
7:30 AM39.2 °F32.0 °F75 %30.39 in3.7 miNorth (350°)4.5 mphMostly Cloudy
8:00 AM39.2 °F33.8 °F81 %30.39 in3.1 miNorth (360°)4.5 mphMostly Cloudy
8:30 AM39.2 °F32.0 °F75 %30.39 in3.1 miESE (120°)6.7 mphMostly Cloudy
9:00 AM39.2 °F32.0 °F75 %30.39 in3.7 miEast (100°)4.5 mphMostly Cloudy
9:30 AM41.0 °F30.2 °F65 %30.39 in3.7 miESE (110°)4.5 mphMostly Cloudy
10:00 AM42.8 °F30.2 °F61 %30.39 in4.3 miESE (120°)4.5 mphMostly Cloudy
10:30 AM42.8 °F28.4 °F57 %30.39 in4.3 miSE (130°)6.7 mphMostly Cloudy
11:00 AM44.6 °F28.4 °F53 %30.36 in4.3 miEast (90°)6.7 mphMostly Cloudy
11:30 AM44.6 °F28.4 °F53 %30.36 in4.3 miESE (110°)8.9 mphScattered Clouds
12:00 PM44.6 °F28.4 °F53 %30.33 in4.3 miEast (80°)6.7 mphMostly Cloudy
12:30 PM46.4 °F28.4 °F50 %30.33 in4.3 miESE (110°)6.7 mphPartly Cloudy
1:00 PM44.6 °F28.4 °F53 %30.33 in4.3 miVariable6.7 mph
1:30 PM46.4 °F28.4 °F50 %30.30 in4.3 miEast (100°)8.9 mph
2:00 PM46.4 °F28.4 °F50 %30.30 in4.3 miESE (110°)6.7 mph
2:30 PM48.2 °F28.4 °F46 %30.30 in4.3 miSE (130°)8.9 mph
3:00 PM48.2 °F28.4 °F46 %30.27 in4.3 miESE (120°)11.2 mph
3:30 PM46.4 °F28.4 °F50 %30.27 in4.3 miESE (110°)11.2 mph
4:00 PM46.4 °F28.4 °F50 %30.27 in4.3 miSE (140°)11.2 mph
4:30 PM46.4 °F28.4 °F50 %30.27 in4.3 miSE (130°)11.2 mph
5:00 PM46.4 °F28.4 °F50 %30.27 in4.3 miSE (130°)11.2 mph
5:30 PM46.4 °F28.4 °F50 %30.24 in4.3 miSE (130°)8.9 mph
6:00 PM44.6 °F30.2 °F57 %30.27 inESE (110°)11.2 mphClear
6:30 PM44.6 °F30.2 °F57 %30.27 inESE (110°)11.2 mphClear
7:00 PM44.6 °F30.2 °F57 %30.27 inESE (110°)8.9 mphClear
7:30 PM44.6 °F30.2 °F57 %30.27 inESE (120°)8.9 mphClear
8:00 PM44.6 °F30.2 °F57 %30.24 inESE (120°)8.9 mphClear
8:30 PM44.6 °F32.0 °F61 %30.24 inESE (120°)8.9 mphClear
9:00 PM44.6 °F32.0 °F61 %30.24 inESE (110°)11.2 mphClear
9:30 PM44.6 °F33.8 °F66 %30.24 inESE (120°)8.9 mphClear
10:00 PM44.6 °F33.8 °F66 %30.24 in6.2 miESE (120°)8.9 mphMostly Cloudy
10:30 PM42.8 °F35.6 °F76 %30.27 in6.2 miEast (100°)6.7 mphRainLight Rain
11:00 PM42.8 °F35.6 °F76 %30.24 in5.0 miESE (120°)8.9 mphRainLight Rain
11:30 PM42.8 °F37.4 °F81 %30.24 in4.3 miESE (120°)6.7 mphRainLight Rain
Hourly data recorded from ZSSS, located miles away from Shanghai, China







STORIES FROM OUR PARTNERS